Regional Weather Roundup
Issued by NWS

Home | Current Version | Previous Version | Text Only | Print | Product List | Glossary Off
Versions: 1 2 3 4 5 6 7 8 9 10 11 12 13 14 15 16 17 18 19 20 21 22 23 24 25 26 27 28 29 30 31 32 33 34 35 36 37 38 39 40 41 42 43 44 45 46 47 48 49 50

414
ASUS45 KBOU 281607
RWRCO

WEATHER ROUNDUP FOR COLORADO
NATIONAL WEATHER SERVICE DENVER/BOULDER CO
1000 AM MDT SUN MAY 28 2017

NOTE: "FAIR" INDICATES FEW OR NO CLOUDS BELOW 12000 FEET WITH NO
SIGNIFICANT WEATHER AND/OR OBSTRUCTIONS TO VISIBILITY.

COZ001>005-013-030-031-281700-
...NORTHWEST COLORADO...

CITY           SKY/WX    TMP DP  RH WIND       PRES   REMARKS
CRAIG          FAIR      54  35  48 NE5       30.36F
HAYDEN         FAIR      50  34  53 E7        30.37S
MEEKER         FAIR      54  31  41 CALM      30.35F
RABBIT EARS PA NOT AVBL
STEAMBOAT SPGS NOT AVBL
WALDEN         NOT AVBL
$$

COZ006>008-011-281700-
...WEST CENTRAL VALLEYS...

CITY           SKY/WX    TMP DP  RH WIND       PRES   REMARKS
GRAND JUNCTION FAIR      63  29  27 VRB6      30.29F
MONTROSE       FAIR      58  30  34 N6        30.33F
EAGLE          SUNNY     48  32  53 CALM      30.42F
RIFLE          FAIR      57  34  41 VRB3      30.34F
DELTA          FAIR      60  28  29 CALM      30.31F
NUCLA          FAIR      59  23  25 CALM      30.34S
$$

COZ017>023-064>068-281700-
...SOUTHWEST COLORADO...

CITY           SKY/WX    TMP DP  RH WIND       PRES   REMARKS
DURANGO        FAIR      59  19  21 VRB3      30.31S
CORTEZ         FAIR      60  26  27 SW5       30.28F
PAGOSA SPRINGS FAIR      57  12  16 SE3       30.36S
TELLURIDE      FAIR      51  12  21 W3        30.41S
WOLF CREEK PAS NOT AVBL
$$

COZ009-010-012-014-032>034-037-058>063-281700-
...CENTRAL COLORADO...

CITY           SKY/WX    TMP DP  RH WIND       PRES   REMARKS
ASPEN          FAIR      50  27  40 N6        30.38S
BUENA VISTA    FAIR      50  16  25 CALM      30.40F
COPPER MTN     NOT AVBL
BERTHOUD PASS  NOT AVBL
COTTONWOOD PAS NOT AVBL
GUNNISON       FAIR      47  24  40 CALM      30.40F
KREMMLING      NOT AVBL
LEADVILLE      FAIR      40  22  48 VRB3      30.44F
SALIDA         FAIR      52  22  31 CALM      30.47F
SUNLIGHT       NOT AVBL
WILKERSON PASS NOT AVBL
$$

COZ069>075-281700-
...SAN LUIS VALLEY/SANGRE DE CRISTO MOUNTAINS...

CITY           SKY/WX    TMP DP  RH WIND       PRES   REMARKS
ALAMOSA        FAIR      53  30  41 VRB3      30.38S
DEL NORTE      NOT AVBL
LA VETA PASS   NOT AVBL
SAGUACHE       NOT AVBL
$$

COZ035-036-038>040-281700-
...NORTHERN COLORADO FRONT RANGE...

CITY           SKY/WX    TMP DP  RH WIND       PRES   REMARKS
DENVER INTL AP FAIR      62  31  31 NW9       30.29S
DMNS CITY PARK   N/A     63  29  28 SW5       30.28F
AURORA         MOSUNNY   60  26  27 W8        30.30S
FRONT RANGE AP NOT AVBL
ERIE MUNI ARPT NOT AVBL
BOULDER MUN AP NOT AVBL
CENTENNIAL     FAIR      60  30  32 NE8       30.31S
BROOMFIELD     SUNNY     63  30  29 NW6       30.31S
FORT COLLINS   FAIR      64  39  39 VRB6      30.27S
LONGMONT       NOT AVBL
$$

COZ041-046-047-076>085-087-088-281700-
...PIKES PEAK/PALMER DIVIDE AND SOUTHERN FOOTHILLS...

CITY           SKY/WX    TMP DP  RH WIND       PRES   REMARKS
COLO. SPRINGS  FAIR      60  28  29 N8G18     30.33S
A. F. ACADEMY  FAIR      58  25  28 N14       30.33S
SCHRIEVER AFB  FAIR      58  28  31 N10       30.33S
CHEYENNE MTN   FAIR      56  26  31 NE7       30.30S
ELLICOTT       FAIR     N/A N/A N/A N8        30.31F
FALCON         FAIR      57  26  30 N8        30.36S
FORT CARSON    FAIR      61  27  27 N7        30.31F
LIMON          FAIR      61  37  41 NW13      30.28S
MONUMENT HILL  NOT AVBL
CANON CITY     NOT AVBL
WALSENBURG     FAIR      59  34  38 CALM      30.35S
TRINIDAD       FAIR      60  35  39 N8        30.33F
$$

COZ042>045-048>051-090-091-281700-
...NORTHEAST COLORADO...

CITY           SKY/WX    TMP DP  RH WIND       PRES   REMARKS
GREELEY ARPT   FAIR      63  43  48 SW7       30.27S
AKRON          FAIR      61  43  51 NW12      30.24S
BURLINGTON     FAIR      67  42  40 NW17      30.21F
WRAY           FAIR      70  41  35 NW12G17   30.18F
YUMA           NOT AVBL
STERLING       NOT AVBL
HOLYOKE        NOT AVBL
FORT MORGAN    FAIR      64  39  40 W10       30.25S
$$

COZ086-089-092>099-281700-
...SOUTHEAST COLORADO...

CITY           SKY/WX    TMP DP  RH WIND       PRES   REMARKS
PUEBLO         FAIR      66  36  32 W7        30.28S
LA JUNTA       FAIR      65  46  50 NW8       30.26S
LAMAR          FAIR      67  49  52 W9        30.21F
SPRINGFIELD      N/A     64  39  39 N16       30.24F
$$




USA.gov is the U.S. government's official web portal to all federal, state and local government web resources and services.